Location: Dentlein
(49.1477°N, 10.4231°E)
Time: 02:45:32
(UTC+00:00)

Meteor 1-12 Rocket - Pass Details

Date: 23 May 2024
Orbit: 855 x 925 km, 81.2° (Epoch: 19 June)

Event Time Altitude Azimuth Distance (km) Brightness Sun altitude
Rises 00:00:59 0° 345° (NNW) 3,512 8.5 -19.5°
Reaches altitude 10° 00:03:28 10° 342° (NNW) 2,579 7.6 -19.4°
Maximum altitude 00:09:14 60° 264° (W) 1,035 4.5 -19.2°
Enters shadow 00:11:46 33° 199° (SSW) 1,473 4.9 -19.1°
